This demonstration page uses our WeatherBlox Daily Observations layout. Learn more.

Left ArrowRight Arrow

40.92945, -100.16068

Hourly Observations for November 18, 2021

Temp ( °F °C ) Dew Point ( °F °C ) Humidity (%) Winds ( mph kmh ) Pressure ( in mb ) Visibility ( mi km ) Precip ( " mm )
12:15 am 00:15 Clear 18 -8 10 -12.2 72 72 WNW 6 9 30.57 1035 10 16 0.00 0.00
12:35 am 00:35 Clear 18 -7.7 11 -11.9 72 72 Calm 30.57 1035 10 16 0.00 0.00
12:55 am 00:55 Clear 16 -8.8 10 -12.4 75 75 W 9 15 30.59 1036 10 16 0.00 0.00
1:15 am 01:15 Clear 17 -8.3 11 -11.8 76 76 NW 7 11 30.58 1036 10 16 0.00 0.00
1:35 am 01:35 Clear 18 -7.8 11 -11.6 74 74 WNW 7 11 30.59 1036 10 16 0.00 0.00
1:55 am 01:55 Clear 19 -7.3 11 -11.4 73 73 WNW 6 9 30.58 1036 10 16 0.00 0.00
2:15 am 02:15 Clear 18 -7.6 11 -11.4 74 74 W 6 9 30.59 1036 10 16 0.00 0.00
2:35 am 02:35 Clear 21 -6.3 12 -11.1 69 69 WNW 8 13 30.57 1035 10 16 0.00 0.00
2:55 am 02:55 Clear 19 -7.3 11 -11.4 73 73 W 9 15 30.59 1036 10 16 0.00 0.00
3:15 am 03:15 Clear 19 -7.4 11 -11.4 73 73 W 9 15 30.60 1036 10 16 0.00 0.00
3:35 am 03:35 Clear 18 -8 11 -11.7 75 75 WNW 7 11 30.60 1036 10 16 0.00 0.00
3:55 am 03:55 Clear 16 -8.8 10 -12.2 77 77 W 6 9 30.61 1037 10 16 0.00 0.00
4:15 am 04:15 Clear 17 -8.5 10 -12 76 76 W 6 9 30.60 1036 10 16 0.00 0.00
4:35 am 04:35 Clear 16 -8.8 10 -12 78 78 W 7 11 30.60 1036 10 16 0.00 0.00
4:55 am 04:55 Clear 15 -9.4 9 -12.6 78 78 WNW 8 13 30.61 1036 10 16 0.00 0.00
5:15 am 05:15 Clear 14 -10 9 -12.9 80 80 WNW 8 13 30.62 1037 10 16 0.00 0.00
5:35 am 05:35 Clear 15 -9.7 9 -12.7 79 79 WNW 8 13 30.63 1037 10 16 0.00 0.00
5:55 am 05:55 Clear 15 -9.5 10 -12.3 80 80 WNW 6 9 30.63 1037 10 16 0.00 0.00
6:15 am 06:15 Clear 15 -9.6 10 -12.5 80 80 WNW 8 13 30.63 1037 10 16 0.00 0.00
6:35 am 06:35 Clear 14 -9.8 9 -12.6 80 80 WNW 8 13 30.64 1038 10 16 0.00 0.00
6:55 am 06:55 Clear 14 -9.8 10 -12.5 81 81 WNW 8 13 30.64 1038 10 16 0.00 0.00
7:15 am 07:15 Clear 14 -10.1 9 -12.7 81 81 WNW 8 13 30.64 1038 10 16 0.00 0.00
7:35 am 07:35 Sunny 14 -9.8 10 -12.5 81 81 WNW 7 11 30.64 1038 10 16 0.00 0.00
7:55 am 07:55 Sunny 15 -9.5 10 -12.3 80 80 WNW 6 9 30.65 1038 10 16 0.00 0.00
8:15 am 08:15 Sunny 17 -8.3 12 -11.3 79 79 WNW 6 9 30.63 1037 10 16 0.00 0.00
8:35 am 08:35 Sunny 20 -6.6 14 -10 77 77 WNW 6 9 30.63 1037 10 16 0.00 0.00
8:55 am 08:55 Sunny 22 -5.5 15 -9.3 75 75 WNW 6 9 30.62 1037 10 16 0.00 0.00
9:15 am 09:15 Sunny 25 -3.9 17 -8.4 71 71 WNW 6 9 30.61 1037 10 16 0.00 0.00
9:35 am 09:35 Sunny 27 -2.6 17 -8.3 65 65 WNW 5 7 30.60 1036 10 16 0.00 0.00
9:55 am 09:55 Sunny 30 -1.3 18 -7.8 62 62 NW 5 7 30.59 1036 10 16 0.00 0.00
10:15 am 10:15 Sunny 32 0 19 -7.1 59 59 NW 3 6 30.58 1036 10 16 0.00 0.00
10:35 am 10:35 Sunny 35 1.4 19 -7.3 53 53 WNW 7 11 30.56 1035 10 16 0.00 0.00
10:55 am 10:55 Sunny 37 2.9 17 -8.4 44 44 NW 7 11 30.54 1034 10 16 0.00 0.00
11:15 am 11:15 Sunny 39 4 16 -9.1 38 38 NW 5 7 30.53 1034 10 16 0.00 0.00
11:35 am 11:35 Sunny 40 4.6 15 -9.3 36 36 WNW 5 7 30.51 1033 10 16 0.00 0.00
11:55 am 11:55 Sunny 41 5 15 -9.4 35 35 Calm 30.49 1032 10 16 0.00 0.00
12:15 pm 12:15 Sunny 42 5.4 14 -9.9 33 33 W 3 6 30.47 1032 10 16 0.00 0.00
12:35 pm 12:35 Sunny 43 6.1 13 -10.5 30 30 NW 3 6 30.46 1031 10 16 0.00 0.00
12:55 pm 12:55 Sunny 44 6.7 13 -10.4 29 29 Calm 30.44 1031 10 16 0.00 0.00
1:15 pm 13:15 Sunny 45 7.4 13 -10.3 27 27 S 3 6 30.43 1030 10 16 0.00 0.00
1:35 pm 13:35 Sunny 45 7.4 14 -10.1 28 28 Calm 30.41 1030 10 16 0.00 0.00
1:55 pm 13:55 Sunny 47 8.1 14 -10.2 26 26 ESE 5 7 30.39 1029 10 16 0.00 0.00
2:15 pm 14:15 Sunny 47 8.6 13 -10.5 25 25 SE 6 9 30.37 1029 10 16 0.00 0.00
2:35 pm 14:35 Sunny 49 9.3 9 -12.7 20 20 SSW 9 15 30.35 1028 10 16 0.00 0.00
2:55 pm 14:55 Sunny 49 9.4 11 -11.9 21 21 SSW 10 17 30.35 1028 10 16 0.00 0.00
3:15 pm 15:15 Sunny 48 9 12 -11.3 23 23 SW 10 17 30.34 1027 10 16 0.00 0.00
3:35 pm 15:35 Sunny 48 9 12 -10.9 23 23 SSW 14 22 30.34 1027 10 16 0.00 0.00
3:55 pm 15:55 Sunny 48 9 13 -10.3 25 25 S 12 19 30.34 1027 10 16 0.00 0.00
4:15 pm 16:15 Sunny 47 8.5 13 -10.5 25 25 SSW 9 15 30.35 1028 10 16 0.00 0.00
4:35 pm 16:35 Sunny 46 7.8 14 -10.2 27 27 S 10 17 30.34 1027 10 16 0.00 0.00
4:55 pm 16:55 Sunny 43 6.3 15 -9.6 31 31 SSE 9 15 30.35 1028 10 16 0.00 0.00
5:15 pm 17:15 Sunny 40 4.7 14 -9.8 34 34 SSE 9 15 30.35 1028 10 16 0.00 0.00
5:35 pm 17:35 Clear 41 4.9 15 -9.7 34 34 SSE 10 17 30.34 1027 10 16 0.00 0.00
5:55 pm 17:55 Clear 38 3.6 15 -9.6 38 38 SE 9 15 30.35 1028 10 16 0.00 0.00
6:15 pm 18:15 Clear 38 3.6 14 -9.8 37 37 SE 9 15 30.35 1028 10 16 0.00 0.00
6:35 pm 18:35 Clear 38 3.2 15 -9.6 39 39 SE 8 13 30.35 1028 10 16 0.00 0.00
6:55 pm 18:55 Clear 37 2.7 15 -9.7 40 40 SE 9 15 30.35 1028 10 16 0.00 0.00
7:15 pm 19:15 Clear 36 2.3 16 -9.1 43 43 SE 10 17 30.34 1028 10 16 0.00 0.00
7:35 pm 19:35 Clear 36 2.4 16 -9 43 43 SSE 8 13 30.34 1028 10 16 0.00 0.00
7:55 pm 19:55 Clear 35 1.8 16 -9 45 45 SSE 9 15 30.35 1028 10 16 0.00 0.00
8:15 pm 20:15 Clear 35 1.6 16 -8.9 46 46 SE 8 13 30.35 1028 10 16 0.00 0.00
8:35 pm 20:35 Clear 35 1.5 16 -8.7 47 47 SSE 9 15 30.34 1028 10 16 0.00 0.00
8:55 pm 20:55 Clear 34 1.2 17 -8.5 49 49 SE 10 17 30.34 1027 10 16 0.00 0.00
9:15 pm 21:15 Clear 34 1.2 17 -8.5 49 49 SE 9 15 30.33 1027 10 16 0.00 0.00
9:35 pm 21:35 Clear 34 1 17 -8.3 50 50 SE 10 17 30.33 1027 10 16 0.00 0.00
9:55 pm 21:55 Clear 33 0.5 17 -8.1 53 53 SE 8 13 30.33 1027 10 16 0.00 0.00
10:15 pm 22:15 Clear 32 0 17 -8.1 55 55 SE 7 11 30.33 1027 10 16 0.00 0.00
10:35 pm 22:35 Clear 32 -0.1 18 -8 56 56 SE 10 17 30.31 1026 10 16 0.00 0.00
10:55 pm 22:55 Clear 32 0 18 -8 55 55 SSE 9 15 30.30 1026 10 16 0.00 0.00
11:15 pm 23:15 Clear 32 0.1 17 -8.1 54 54 SSE 9 15 30.30 1026 10 16 0.00 0.00
11:35 pm 23:35 Clear 34 1.3 17 -8.6 48 48 SSE 13 20 30.26 1025 10 16 0.00 0.00
11:55 pm 23:55 Clear 35 1.7 16 -8.9 46 46 SSE 14 22 30.25 1024 10 16 0.00 0.00

Powered by AerisWeather